CZ-6A DEB, 61454

Orbit data source: Space-Track

CZ-6A DEB, 61454 is space debris in LEO originally from a launch on Tue, 06 Aug 2024 UTC launched from the Taiyaun Space Center, China (TSC). Debris objects in space refer to the collection of defunct objects orbiting the Earth. Examples of debris include non-operational satellites, rocket bodies, and fragments generated from explosions, collisions, or faulty payload assembly.

Loading next visibility...
Identifier
61454, 2024-140ZL
Orbit
LEO
Country
Flag of CNCN / PRC
Related business
Manufacturer
SAST
Mission
Spacecraft
Bus & Motor
Unknown
Mass
Unknown
Launch date (UTC)
2024-08-06 (2 years ago)
Launch vehicle
Unknown
Launch site
Taiyaun Space Center, China (TSC)
Object type
Payload
Rocket body
Debris
Shape & HBR
Unknown shape, 0.1 m
Radar Cross Section
Medium (>0.1 m² and <1 m²)

Expand to show TLE details & history
Last TLE update: 10 hours ago

TLE from 10 hours ago
0 CZ-6A DEB
1 61454U 24140ZL  26171.44361041  .00004712  00000-0  17698-2 0  9998
2 61454  88.6086 241.5482 0031040 179.1999 180.9253 14.31188161 94383
Epoch: 2026-06-20T10:38Z
TLE epoch observation values (Epoch: 2026-06-20T10:38:47.939Z)
Latitude
0.00002°
Longitude
173.1903°
Altitude
813.074 km
Speed
7.435 km/s
True Right ascension
16h 06m 11s
True Declination
0° 00' 00"
Sunlit
Object was in full shadow at epoch
Visualization orbit readout
Latitude
Unknown
Longitude
Unknown
Altitude
Unknown
Speed
Unknown
Apparent Right ascension
Unknown
Apparent Declination
Unknown
Sunlit
N/A
Visualization observer readout
Local Sidereal Time
07:22:41
Azimuth
Unknown
Elevation
Unknown
Doppler factor
Unknown
Orbital elements
Apogee altitude
806.933 km
Perigee altitude
762.466 km
Semi-major axis
7,162.837 km
Eccentricity
0.0031
Inclination
88.6086°
RAAN
241.5482°
Arg. of periapsis
179.1999°
True anomaly
180.91958°
Mean anomaly
180.9253°
Eccentric anomaly
180.92244°
Mean motion
3.58027 °/min
Orbital period
100.55 mins
BSTAR
0.0017698
Loading maneuver chart data...
Computing Atmospheric mass density...
Loading historical data...
Loading historical data...
Loading historical data...
Loading historical data...
Loading historical data...
Loading historical data...
Loading historical data...

Documentation

Showing up to 5 results
|